Location: Windsor
(43.2292°N, 89.3015°W)
Time: 20:31:02
(UTC+00:00)

RS-44 - Pass Details

Date: 29 June 2022
Orbit: 1175 x 1510 km, 82.5° (Epoch: 16 August)

Event Time Altitude Azimuth Distance (km) Brightness Sun altitude
Rises 03:43:48 0° 216° (SW) 4,300 ? -16.5°
Reaches altitude 10° 03:46:44 10° 224° (SW) 3,380 ? -16.8°
Maximum altitude 03:54:08 38° 290° (WNW) 2,030 ? -17.5°
Drops below altitude 10° 04:02:03 10° 356° (N) 3,610 ? -18.2°
Sets 04:05:20 0° 5° (N) 4,623 ? -18.4°
